Meath Environmental Platform

Observations

Time Sensor AQI SAQ Temp °C Hum % Pres Pa CO μg/m³ H₂S μg/m³ NO μg/m³ NO₂ μg/m³ O₃ μg/m³ SO₂ μg/m³ CO₂e PPM VOC PPM PM1 μg/m³ PM2.5 μg/m³ PM4 μg/m³ PM10 μg/m³ TPS µm
Wednesday 12 August 2026
06:19 Trim Market St 2 19.7 68 56,575 0.14 0 1.27 10.33 70.85 0 4.99 7.06 10.08
06:19 Trim Patrick St 2 19.2 71 38,460 0.08 0 1.3 9.13 48.57 0 8 11.54 12.7
06:18 Trim Patrick St 2 19.2 71 38,460 0.08 0 1.37 10.71 52.76 0 8 12.25 13.48
06:17 Trim Market St 2 19.6 68 56,524 0.13 0 1.22 12.13 68.14 0 3.56 6.08 9.44
06:17 Trim Patrick St 2 19.1 72 38,460 0.09 0 1.29 6.92 59.43 0 7.14 10.8 11.88
06:16 Trim Market St 2 19.6 68 56,506 0.13 0 1.2 12.13 71.3 0 4.99 6.56 9.44
06:15 Trim Patrick St 2 19.1 71 38,460 0.1 0 1.37 14.1 50.05 0 7.14 11.57 12.73
06:14 Trim Patrick St 2 19.1 71 38,460 0.09 0 1.28 8.08 60.17 0 6.29 10.09 11.1
06:13 Trim Patrick St 2 19.1 71 38,460 0.09 0 1.2 22.91 47.44 0 7.14 12.96 14.26
06:13 Trim Market St 2 19.6 68 56,470 0.13 0 1.18 11.27 71.53 0 4.28 5.59 9.44
06:12 Trim Patrick St 2 19.1 72 38,460 0.08 0 1.3 6.76 48.63 0 6.29 10.8 11.88
06:11 Trim Patrick St 2 19.1 71 38,460 0.08 0 1.37 7.44 43.71 0 8 12.25 13.48
06:11 Trim Market St 2 19.6 68 56,462 0.15 0 1.22 11.68 70.29 0 4.99 7.05 11.35
06:10 Trim Patrick St 2 19 71 38,460 0.09 0 1.37 24.39 56.82 0 8 11.58 12.74
06:09 Trim Patrick St 2 19 72 38,460 0.08 0 1.2 15.45 47.45 0 8 12.94 14.23
06:08 Trim Patrick St 2 19 72 38,460 0.1 0 1.26 11.74 47.43 0 7.14 12.24 13.46
06:08 Trim Market St 2 19.5 68 56,445 0.13 0 1.36 11.97 70.07 0 3.56 6.06 8.8
06:07 Trim Market St 2 19.5 68 56,431 0.12 0 1.35 12.34 71.38 0 3.56 5.58 8.17
06:06 Trim Patrick St 2 19 70 38,460 0.08 0 1.18 11.94 57.62 0 7.14 10.88 11.97
06:05 Trim Patrick St 2 19 71 38,460 0.08 0 1.21 11.7 51.23 0 7.14 12.25 13.48